Location: Newark
(43.0000°N, 1.6781°W)
Time: 09:34:46
(UTC+00:00)

Explorer 7 - Pass Details

Date: 21 April 2021
Orbit: 484 x 677 km, 50.3° (Epoch: 07 May)

Event Time Altitude Azimuth Distance (km) Brightness Sun altitude
Rises 23:53:51 0° 297° (WNW) 2,777 10.8 -35.1°
Enters shadow 23:55:14 - 301° (WNW) 2,253 10.3 -35.1°
Reaches altitude 10° 23:56:10 10° 305° (NW) 1,912 - -35.1°
Maximum altitude 00:00:20 40° 16° (NNE) 904 - -35.1°
Drops below altitude 10° 00:04:43 10° 87° (E) 2,021 - -35.1°
Sets 00:07:13 0° 94° (E) 2,957 - -35.1°
